Year,Month,Day,Hour,Minute,Value (Times are PST for temperature in C)
2013,09,10,00,00,14.10
2013,09,10,00,01,14.10
2013,09,10,00,02,14.00
2013,09,10,00,03,14.00
2013,09,10,00,04,14.00
2013,09,10,00,05,14.00
2013,09,10,00,06,13.90
2013,09,10,00,07,13.90
2013,09,10,00,08,13.90
2013,09,10,00,09,13.90
2013,09,10,00,10,13.90
2013,09,10,00,11,13.90
2013,09,10,00,12,13.90
2013,09,10,00,13,13.90
2013,09,10,00,14,13.90
2013,09,10,00,15,13.90
2013,09,10,00,16,13.90
2013,09,10,00,17,13.90
2013,09,10,00,18,13.90
2013,09,10,00,19,13.90
2013,09,10,00,20,13.80
2013,09,10,00,21,13.80
2013,09,10,00,22,13.80
2013,09,10,00,23,13.80
2013,09,10,00,24,13.80
2013,09,10,00,25,13.80
2013,09,10,00,26,13.80
2013,09,10,00,27,13.80
2013,09,10,00,28,13.70
2013,09,10,00,29,13.70
2013,09,10,00,30,13.70
2013,09,10,00,31,13.70
2013,09,10,00,32,13.70
2013,09,10,00,33,13.70
2013,09,10,00,34,13.60
2013,09,10,00,35,13.60
2013,09,10,00,36,13.60
2013,09,10,00,37,13.60
2013,09,10,00,38,13.60
2013,09,10,00,39,13.60
2013,09,10,00,40,13.60
2013,09,10,00,41,13.60
2013,09,10,00,42,13.60
2013,09,10,00,43,13.60
2013,09,10,00,44,13.60
2013,09,10,00,45,13.60
2013,09,10,00,46,13.60
2013,09,10,00,47,13.60
2013,09,10,00,48,13.60
2013,09,10,00,49,13.60
2013,09,10,00,50,13.60
2013,09,10,00,51,13.60
2013,09,10,00,52,13.60
2013,09,10,00,53,13.60
2013,09,10,00,54,13.50
2013,09,10,00,55,13.50
2013,09,10,00,56,13.50
2013,09,10,00,57,13.40
2013,09,10,00,58,13.40
2013,09,10,00,59,13.40
2013,09,10,01,00,13.40
2013,09,10,01,01,13.30
2013,09,10,01,02,13.30
2013,09,10,01,03,13.30
2013,09,10,01,04,13.30
2013,09,10,01,05,13.30
2013,09,10,01,06,13.30
2013,09,10,01,07,13.30
2013,09,10,01,08,13.30
2013,09,10,01,09,13.20
2013,09,10,01,10,13.20
2013,09,10,01,11,13.20
2013,09,10,01,12,13.20
2013,09,10,01,13,13.20
2013,09,10,01,14,13.20
2013,09,10,01,15,13.20
2013,09,10,01,16,13.20
2013,09,10,01,17,13.20
2013,09,10,01,18,13.20
2013,09,10,01,19,13.20
2013,09,10,01,20,13.20
2013,09,10,01,21,13.20
2013,09,10,01,22,13.20
2013,09,10,01,23,13.20
2013,09,10,01,24,13.20
2013,09,10,01,25,13.20
2013,09,10,01,26,13.20
2013,09,10,01,27,13.10
2013,09,10,01,28,13.10
2013,09,10,01,29,13.10
2013,09,10,01,30,13.10
2013,09,10,01,31,13.10
2013,09,10,01,32,13.10
2013,09,10,01,33,13.10
2013,09,10,01,34,13.10
2013,09,10,01,35,13.10
2013,09,10,01,36,13.10
2013,09,10,01,37,13.00
2013,09,10,01,38,13.00
2013,09,10,01,39,13.00
2013,09,10,01,40,13.00
2013,09,10,01,41,13.00
2013,09,10,01,42,13.00
2013,09,10,01,43,13.00
2013,09,10,01,44,13.00
2013,09,10,01,45,13.00
2013,09,10,01,46,13.00
2013,09,10,01,47,13.00
2013,09,10,01,48,13.00
2013,09,10,01,49,13.00
2013,09,10,01,50,12.90
2013,09,10,01,51,12.90
2013,09,10,01,52,12.90
2013,09,10,01,53,12.90
2013,09,10,01,54,12.90
2013,09,10,01,55,12.90
2013,09,10,01,56,12.80
2013,09,10,01,57,12.80
2013,09,10,01,58,12.80
2013,09,10,01,59,12.80
2013,09,10,02,00,12.80
2013,09,10,02,01,12.80
2013,09,10,02,02,12.80
2013,09,10,02,03,12.80
2013,09,10,02,04,12.80
2013,09,10,02,05,12.80
2013,09,10,02,06,12.70
2013,09,10,02,07,12.70
2013,09,10,02,08,12.70
2013,09,10,02,09,12.70
2013,09,10,02,10,12.70
2013,09,10,02,11,12.70
2013,09,10,02,12,12.70
2013,09,10,02,13,12.60
2013,09,10,02,14,12.60
2013,09,10,02,15,12.60
2013,09,10,02,16,12.60
2013,09,10,02,17,12.60
2013,09,10,02,18,12.60
2013,09,10,02,19,12.60
2013,09,10,02,20,12.50
2013,09,10,02,21,12.50
2013,09,10,02,22,12.50
2013,09,10,02,23,12.50
2013,09,10,02,24,12.50
2013,09,10,02,25,12.40
2013,09,10,02,26,12.40
2013,09,10,02,27,12.40
2013,09,10,02,28,12.40
2013,09,10,02,29,12.40
2013,09,10,02,30,12.40
2013,09,10,02,31,12.30
2013,09,10,02,32,12.30
2013,09,10,02,33,12.30
2013,09,10,02,34,12.30
2013,09,10,02,35,12.30
2013,09,10,02,36,12.30
2013,09,10,02,37,12.30
2013,09,10,02,38,12.30
2013,09,10,02,39,12.30
2013,09,10,02,40,12.30
2013,09,10,02,41,12.30
2013,09,10,02,42,12.20
2013,09,10,02,43,12.20
2013,09,10,02,44,12.20
2013,09,10,02,45,12.20
2013,09,10,02,46,12.20
2013,09,10,02,47,12.20
2013,09,10,02,48,12.20
2013,09,10,02,49,12.20
2013,09,10,02,50,12.10
2013,09,10,02,51,12.10
2013,09,10,02,52,12.10
2013,09,10,02,53,12.10
2013,09,10,02,54,12.10
2013,09,10,02,55,12.10
2013,09,10,02,56,12.10
2013,09,10,02,57,12.10
2013,09,10,02,58,12.10
2013,09,10,02,59,12.10
2013,09,10,03,00,12.00
2013,09,10,03,01,12.00
2013,09,10,03,02,12.00
2013,09,10,03,03,12.00
2013,09,10,03,04,12.00
2013,09,10,03,05,12.00
2013,09,10,03,06,12.00
2013,09,10,03,07,11.90
2013,09,10,03,08,11.90
2013,09,10,03,09,11.90
2013,09,10,03,10,11.90
2013,09,10,03,11,11.90
2013,09,10,03,12,11.90
2013,09,10,03,13,11.90
2013,09,10,03,14,11.90
2013,09,10,03,15,11.80
2013,09,10,03,16,11.80
2013,09,10,03,17,11.80
2013,09,10,03,18,11.80
2013,09,10,03,19,11.80
2013,09,10,03,20,11.80
2013,09,10,03,21,11.80
2013,09,10,03,22,11.80
2013,09,10,03,23,11.70
2013,09,10,03,24,11.70
2013,09,10,03,25,11.70
2013,09,10,03,26,11.70
2013,09,10,03,27,11.70
2013,09,10,03,28,11.70
2013,09,10,03,29,11.70
2013,09,10,03,30,11.70
2013,09,10,03,31,11.70
2013,09,10,03,32,11.70
2013,09,10,03,33,11.70
2013,09,10,03,34,11.70
2013,09,10,03,35,11.70
2013,09,10,03,36,11.70
2013,09,10,03,37,11.70
2013,09,10,03,38,11.70
2013,09,10,03,39,11.60
2013,09,10,03,40,11.60
2013,09,10,03,41,11.60
2013,09,10,03,42,11.60
2013,09,10,03,43,11.60
2013,09,10,03,44,11.50
2013,09,10,03,45,11.50
2013,09,10,03,46,11.40
2013,09,10,03,47,11.40
2013,09,10,03,48,11.40
2013,09,10,03,49,11.40
2013,09,10,03,50,11.40
2013,09,10,03,51,11.40
2013,09,10,03,52,11.40
2013,09,10,03,53,11.40
2013,09,10,03,54,11.40
2013,09,10,03,55,11.50
2013,09,10,03,56,11.50
2013,09,10,03,57,11.50
2013,09,10,03,58,11.50
2013,09,10,03,59,11.50
2013,09,10,04,00,11.40
2013,09,10,04,01,11.40
2013,09,10,04,02,11.40
2013,09,10,04,03,11.40
2013,09,10,04,04,11.40
2013,09,10,04,05,11.40
2013,09,10,04,06,11.40
2013,09,10,04,07,11.40
2013,09,10,04,08,11.40
2013,09,10,04,09,11.40
2013,09,10,04,10,11.40
2013,09,10,04,11,11.40
2013,09,10,04,12,11.40
2013,09,10,04,13,11.40
2013,09,10,04,14,11.40
2013,09,10,04,15,11.40
2013,09,10,04,16,11.40
2013,09,10,04,17,11.40
2013,09,10,04,18,11.40
2013,09,10,04,19,11.40
2013,09,10,04,20,11.30
2013,09,10,04,21,11.30
2013,09,10,04,22,11.30
2013,09,10,04,23,11.30
2013,09,10,04,24,11.30
2013,09,10,04,25,11.30
2013,09,10,04,26,11.30
2013,09,10,04,27,11.20
2013,09,10,04,28,11.20
2013,09,10,04,29,11.20
2013,09,10,04,30,11.20
2013,09,10,04,31,11.20
2013,09,10,04,32,11.20
2013,09,10,04,33,11.10
2013,09,10,04,34,11.10
2013,09,10,04,35,11.10
2013,09,10,04,36,11.10
2013,09,10,04,37,11.10
2013,09,10,04,38,11.10
2013,09,10,04,39,11.10
2013,09,10,04,40,11.10
2013,09,10,04,41,11.10
2013,09,10,04,42,11.10
2013,09,10,04,43,11.10
2013,09,10,04,44,11.10
2013,09,10,04,45,11.10
2013,09,10,04,46,11.10
2013,09,10,04,47,11.20
2013,09,10,04,48,11.20
2013,09,10,04,49,11.20
2013,09,10,04,50,11.20
2013,09,10,04,51,11.20
2013,09,10,04,52,11.20
2013,09,10,04,53,11.20
2013,09,10,04,54,11.20
2013,09,10,04,55,11.20
2013,09,10,04,56,11.20
2013,09,10,04,57,11.20
2013,09,10,04,58,11.20
2013,09,10,04,59,11.20
2013,09,10,05,00,11.10
2013,09,10,05,01,11.10
2013,09,10,05,02,11.10
2013,09,10,05,03,11.10
2013,09,10,05,04,11.10
2013,09,10,05,05,11.10
2013,09,10,05,06,11.10
2013,09,10,05,07,11.10
2013,09,10,05,08,11.10
2013,09,10,05,09,11.10
2013,09,10,05,10,11.10
2013,09,10,05,11,11.10
2013,09,10,05,12,11.10
2013,09,10,05,13,11.10
2013,09,10,05,14,11.00
2013,09,10,05,15,11.00
2013,09,10,05,16,11.00
2013,09,10,05,17,10.90
2013,09,10,05,18,10.90
2013,09,10,05,19,10.90
2013,09,10,05,20,10.90
2013,09,10,05,21,10.90
2013,09,10,05,22,10.90
2013,09,10,05,23,10.80
2013,09,10,05,24,10.80
2013,09,10,05,25,10.80
2013,09,10,05,26,10.80
2013,09,10,05,27,10.80
2013,09,10,05,28,10.80
2013,09,10,05,29,10.80
2013,09,10,05,30,10.80
2013,09,10,05,31,10.70
2013,09,10,05,32,10.70
2013,09,10,05,33,10.70
2013,09,10,05,34,10.70
2013,09,10,05,35,10.70
2013,09,10,05,36,10.70
2013,09,10,05,37,10.70
2013,09,10,05,38,10.70
2013,09,10,05,39,10.70
2013,09,10,05,40,10.70
2013,09,10,05,41,10.70
2013,09,10,05,42,10.70
2013,09,10,05,43,10.70
2013,09,10,05,44,10.70
2013,09,10,05,45,10.70
2013,09,10,05,46,10.70
2013,09,10,05,47,10.70
2013,09,10,05,48,10.70
2013,09,10,05,49,10.70
2013,09,10,05,50,10.70
2013,09,10,05,51,10.70
2013,09,10,05,52,10.70
2013,09,10,05,53,10.80
2013,09,10,05,54,10.80
2013,09,10,05,55,10.80
2013,09,10,05,56,10.80
2013,09,10,05,57,10.80
2013,09,10,05,58,10.80
2013,09,10,05,59,10.90
2013,09,10,06,00,10.90
2013,09,10,06,01,10.90
2013,09,10,06,02,10.90
2013,09,10,06,03,10.90
2013,09,10,06,04,10.90
2013,09,10,06,05,10.90
2013,09,10,06,06,10.90
2013,09,10,06,07,10.90
2013,09,10,06,08,10.90
2013,09,10,06,09,10.90
2013,09,10,06,10,10.90
2013,09,10,06,11,10.90
2013,09,10,06,12,10.90
2013,09,10,06,13,10.90
2013,09,10,06,14,10.90
2013,09,10,06,15,10.90
2013,09,10,06,16,10.90
2013,09,10,06,17,10.90
2013,09,10,06,18,10.90
2013,09,10,06,19,10.90
2013,09,10,06,20,10.90
2013,09,10,06,21,10.90
2013,09,10,06,22,10.90
2013,09,10,06,23,10.90
2013,09,10,06,24,10.90
2013,09,10,06,25,10.80
2013,09,10,06,26,10.80
2013,09,10,06,27,10.80
2013,09,10,06,28,10.80
2013,09,10,06,29,10.80
2013,09,10,06,30,10.80
2013,09,10,06,31,10.80
2013,09,10,06,32,10.80
2013,09,10,06,33,10.80
2013,09,10,06,34,10.80
2013,09,10,06,35,10.70
2013,09,10,06,36,10.70
2013,09,10,06,37,10.70
2013,09,10,06,38,10.70
2013,09,10,06,39,10.70
2013,09,10,06,40,10.70
2013,09,10,06,41,10.70
2013,09,10,06,42,10.70
2013,09,10,06,43,10.70
2013,09,10,06,44,10.70
2013,09,10,06,45,10.80
2013,09,10,06,46,10.80
2013,09,10,06,47,10.80
2013,09,10,06,48,10.80
2013,09,10,06,49,10.90
2013,09,10,06,50,10.90
2013,09,10,06,51,10.90
2013,09,10,06,52,10.90
2013,09,10,06,53,10.80
2013,09,10,06,54,10.80
2013,09,10,06,55,10.70
2013,09,10,06,56,10.70
2013,09,10,06,57,10.70
2013,09,10,06,58,10.70
2013,09,10,06,59,10.70
2013,09,10,07,00,10.70
2013,09,10,07,01,10.70
2013,09,10,07,02,10.70
2013,09,10,07,03,10.70
2013,09,10,07,04,10.70
2013,09,10,07,05,10.80
2013,09,10,07,06,10.80
2013,09,10,07,07,10.90
2013,09,10,07,08,10.90
2013,09,10,07,09,10.90
2013,09,10,07,10,11.00
2013,09,10,07,11,11.00
2013,09,10,07,12,11.00
2013,09,10,07,13,11.00
2013,09,10,07,14,11.10
2013,09,10,07,15,11.10
2013,09,10,07,16,11.10
2013,09,10,07,17,11.10
2013,09,10,07,18,11.10
2013,09,10,07,19,11.10
2013,09,10,07,20,11.20
2013,09,10,07,21,11.20
2013,09,10,07,22,11.20
2013,09,10,07,23,11.20
2013,09,10,07,24,11.20
2013,09,10,07,25,11.20
2013,09,10,07,26,11.20
2013,09,10,07,27,11.20
2013,09,10,07,28,11.20
2013,09,10,07,29,11.20
2013,09,10,07,30,11.20
2013,09,10,07,31,11.20
2013,09,10,07,32,11.20
2013,09,10,07,33,11.20
2013,09,10,07,34,11.20
2013,09,10,07,35,11.20
2013,09,10,07,36,11.20
2013,09,10,07,37,11.30
2013,09,10,07,38,11.30
2013,09,10,07,39,11.30
2013,09,10,07,40,11.30
2013,09,10,07,41,11.30
2013,09,10,07,42,11.40
2013,09,10,07,43,11.40
2013,09,10,07,44,11.40
2013,09,10,07,45,11.40
2013,09,10,07,46,11.40
2013,09,10,07,47,11.50
2013,09,10,07,48,11.50
2013,09,10,07,49,11.60
2013,09,10,07,50,11.60
2013,09,10,07,51,11.70
2013,09,10,07,52,11.80
2013,09,10,07,53,11.90
2013,09,10,07,54,12.00
2013,09,10,07,55,12.10
2013,09,10,07,56,12.10
2013,09,10,07,57,12.20
2013,09,10,07,58,12.20
2013,09,10,07,59,12.20
2013,09,10,08,00,12.20
2013,09,10,08,01,12.30
2013,09,10,08,02,12.30
2013,09,10,08,03,12.30
2013,09,10,08,04,12.30
2013,09,10,08,05,12.40
2013,09,10,08,06,12.50
2013,09,10,08,07,12.60
2013,09,10,08,08,12.60
2013,09,10,08,09,12.80
2013,09,10,08,10,12.80
2013,09,10,08,11,13.00
2013,09,10,08,12,13.10
2013,09,10,08,13,13.20
2013,09,10,08,14,13.20
2013,09,10,08,15,13.30
2013,09,10,08,16,13.40
2013,09,10,08,17,13.40
2013,09,10,08,18,13.50
2013,09,10,08,19,13.60
2013,09,10,08,20,13.60
2013,09,10,08,21,13.60
2013,09,10,08,22,13.70
2013,09,10,08,23,13.80
2013,09,10,08,24,13.90
2013,09,10,08,25,13.90
2013,09,10,08,26,14.00
2013,09,10,08,27,14.10
2013,09,10,08,28,14.20
2013,09,10,08,29,14.40
2013,09,10,08,30,14.50
2013,09,10,08,31,14.60
2013,09,10,08,32,14.70
2013,09,10,08,33,14.80
2013,09,10,08,34,14.90
2013,09,10,08,35,14.90
2013,09,10,08,36,15.00
2013,09,10,08,37,15.10
2013,09,10,08,38,15.20
2013,09,10,08,39,15.20
2013,09,10,08,40,15.30
2013,09,10,08,41,15.30
2013,09,10,08,42,15.30
2013,09,10,08,43,15.40
2013,09,10,08,44,15.40
2013,09,10,08,45,15.50
2013,09,10,08,46,15.50
2013,09,10,08,47,15.60
2013,09,10,08,48,15.80
2013,09,10,08,49,15.90
2013,09,10,08,50,16.00
2013,09,10,08,51,16.10
2013,09,10,08,52,16.30
2013,09,10,08,53,16.50
2013,09,10,08,54,16.60
2013,09,10,08,55,16.80
2013,09,10,08,56,16.90
2013,09,10,08,57,17.00
2013,09,10,08,58,17.10
2013,09,10,08,59,17.20
2013,09,10,09,00,17.30
2013,09,10,09,01,17.40
2013,09,10,09,02,17.40
2013,09,10,09,03,17.50
2013,09,10,09,04,17.60
2013,09,10,09,05,17.70
2013,09,10,09,06,17.80
2013,09,10,09,07,17.80
2013,09,10,09,08,17.90
2013,09,10,09,09,18.00
2013,09,10,09,10,18.10
2013,09,10,09,11,18.10
2013,09,10,09,12,18.20
2013,09,10,09,13,18.20
2013,09,10,09,14,18.30
2013,09,10,09,15,18.30
2013,09,10,09,16,18.30
2013,09,10,09,17,18.30
2013,09,10,09,18,18.30
2013,09,10,09,19,18.30
2013,09,10,09,20,18.30
2013,09,10,09,21,18.30
2013,09,10,09,22,18.30
2013,09,10,09,23,18.30
2013,09,10,09,24,18.30
2013,09,10,09,25,18.30
2013,09,10,09,26,18.40
2013,09,10,09,27,18.40
2013,09,10,09,28,18.40
2013,09,10,09,29,18.40
2013,09,10,09,30,18.40
2013,09,10,09,31,18.50
2013,09,10,09,32,18.50
2013,09,10,09,33,18.60
2013,09,10,09,34,18.60
2013,09,10,09,35,18.60
2013,09,10,09,36,18.60
2013,09,10,09,37,18.70
2013,09,10,09,38,18.70
2013,09,10,09,39,18.80
2013,09,10,09,40,18.80
2013,09,10,09,41,18.90
2013,09,10,09,42,18.90
2013,09,10,09,43,19.00
2013,09,10,09,44,19.00
2013,09,10,09,45,19.10
2013,09,10,09,46,19.20
2013,09,10,09,47,19.20
2013,09,10,09,48,19.30
2013,09,10,09,49,19.40
2013,09,10,09,50,19.50
2013,09,10,09,51,19.60
2013,09,10,09,52,19.70
2013,09,10,09,53,19.80
2013,09,10,09,54,19.90
2013,09,10,09,55,20.00
2013,09,10,09,56,20.10
2013,09,10,09,57,20.20
2013,09,10,09,58,20.30
2013,09,10,09,59,20.30
2013,09,10,10,00,20.40
2013,09,10,10,01,20.40
2013,09,10,10,02,20.40
2013,09,10,10,03,20.40
2013,09,10,10,04,20.40
2013,09,10,10,05,20.30
2013,09,10,10,06,20.30
2013,09,10,10,07,20.30
2013,09,10,10,08,20.30
2013,09,10,10,09,20.20
2013,09,10,10,10,20.20
2013,09,10,10,11,20.20
2013,09,10,10,12,20.20
2013,09,10,10,13,20.30
2013,09,10,10,14,20.30
2013,09,10,10,15,20.30
2013,09,10,10,16,20.40
2013,09,10,10,17,20.50
2013,09,10,10,18,20.60
2013,09,10,10,19,20.70
2013,09,10,10,20,20.70
2013,09,10,10,21,20.80
2013,09,10,10,22,20.90
2013,09,10,10,23,21.00
2013,09,10,10,24,21.00
2013,09,10,10,25,21.10
2013,09,10,10,26,21.20
2013,09,10,10,27,21.30
2013,09,10,10,28,21.30
2013,09,10,10,29,21.40
2013,09,10,10,30,21.50
2013,09,10,10,31,21.50
2013,09,10,10,32,21.60
2013,09,10,10,33,21.70
2013,09,10,10,34,21.70
2013,09,10,10,35,21.70
2013,09,10,10,36,21.70
2013,09,10,10,37,21.70
2013,09,10,10,38,21.70
2013,09,10,10,39,21.70
2013,09,10,10,40,21.60
2013,09,10,10,41,21.50
2013,09,10,10,42,21.50
2013,09,10,10,43,21.40
2013,09,10,10,44,21.30
2013,09,10,10,45,21.20
2013,09,10,10,46,21.20
2013,09,10,10,47,21.10
2013,09,10,10,48,21.00
2013,09,10,10,49,21.00
2013,09,10,10,50,20.90
2013,09,10,10,51,20.90
2013,09,10,10,52,21.00
2013,09,10,10,53,21.10
2013,09,10,10,54,21.20
2013,09,10,10,55,21.30
2013,09,10,10,56,21.30
2013,09,10,10,57,21.30
2013,09,10,10,58,21.40
2013,09,10,10,59,21.40
2013,09,10,11,00,21.40
2013,09,10,11,01,21.40
2013,09,10,11,02,21.50
2013,09,10,11,03,21.50
2013,09,10,11,04,21.50
2013,09,10,11,05,21.50
2013,09,10,11,06,21.50
2013,09,10,11,07,21.50
2013,09,10,11,08,21.50
2013,09,10,11,09,21.50
2013,09,10,11,10,21.50
2013,09,10,11,11,21.50
2013,09,10,11,12,21.40
2013,09,10,11,13,21.40
2013,09,10,11,14,21.30
2013,09,10,11,15,21.40
2013,09,10,11,16,21.40
2013,09,10,11,17,21.50
2013,09,10,11,18,21.50
2013,09,10,11,19,21.50
2013,09,10,11,20,21.50
2013,09,10,11,21,21.50
2013,09,10,11,22,21.50
2013,09,10,11,23,21.40
2013,09,10,11,24,21.50
2013,09,10,11,25,21.60
2013,09,10,11,26,21.70
2013,09,10,11,27,21.80
2013,09,10,11,28,21.90
2013,09,10,11,29,22.00
2013,09,10,11,30,22.00
2013,09,10,11,31,22.10
2013,09,10,11,32,22.10
2013,09,10,11,33,22.10
2013,09,10,11,34,22.20
2013,09,10,11,35,22.20
2013,09,10,11,36,22.30
2013,09,10,11,37,22.40
2013,09,10,11,38,22.40
2013,09,10,11,39,22.40
2013,09,10,11,40,22.40
2013,09,10,11,41,22.30
2013,09,10,11,42,22.30
2013,09,10,11,43,22.20
2013,09,10,11,44,22.20
2013,09,10,11,45,22.10
2013,09,10,11,46,22.10
2013,09,10,11,47,22.10
2013,09,10,11,48,22.10
2013,09,10,11,49,22.10
2013,09,10,11,50,22.10
2013,09,10,11,51,22.00
2013,09,10,11,52,22.00
2013,09,10,11,53,21.90
2013,09,10,11,54,22.00
2013,09,10,11,55,22.00
2013,09,10,11,56,22.10
2013,09,10,11,57,22.10
2013,09,10,11,58,22.10
2013,09,10,11,59,22.10
2013,09,10,12,00,22.10
2013,09,10,12,01,22.10
2013,09,10,12,02,22.10
2013,09,10,12,03,22.00
2013,09,10,12,04,22.00
2013,09,10,12,05,22.00
2013,09,10,12,06,22.00
2013,09,10,12,07,22.00
2013,09,10,12,08,22.10
2013,09,10,12,09,22.10
2013,09,10,12,10,22.20
2013,09,10,12,11,22.20
2013,09,10,12,12,22.20
2013,09,10,12,13,22.30
2013,09,10,12,14,22.30
2013,09,10,12,15,22.30
2013,09,10,12,16,22.30
2013,09,10,12,17,22.30
2013,09,10,12,18,22.40
2013,09,10,12,19,22.30
2013,09,10,12,20,22.30
2013,09,10,12,21,22.30
2013,09,10,12,22,22.20
2013,09,10,12,23,22.20
2013,09,10,12,24,22.10
2013,09,10,12,25,22.10
2013,09,10,12,26,22.10
2013,09,10,12,27,22.10
2013,09,10,12,28,22.20
2013,09,10,12,29,22.20
2013,09,10,12,30,22.20
2013,09,10,12,31,22.20
2013,09,10,12,32,22.20
2013,09,10,12,33,22.10
2013,09,10,12,34,22.10
2013,09,10,12,35,22.10
2013,09,10,12,36,22.10
2013,09,10,12,37,22.20
2013,09,10,12,38,22.20
2013,09,10,12,39,22.20
2013,09,10,12,40,22.20
2013,09,10,12,41,22.20
2013,09,10,12,42,22.20
2013,09,10,12,43,22.30
2013,09,10,12,44,22.40
2013,09,10,12,45,22.50
2013,09,10,12,46,22.60
2013,09,10,12,47,22.70
2013,09,10,12,48,22.70
2013,09,10,12,49,22.70
2013,09,10,12,50,22.70
2013,09,10,12,51,22.70
2013,09,10,12,52,22.70
2013,09,10,12,53,22.80
2013,09,10,12,54,22.80
2013,09,10,12,55,22.80
2013,09,10,12,56,22.90
2013,09,10,12,57,22.90
2013,09,10,12,58,22.90
2013,09,10,12,59,22.90
2013,09,10,13,00,23.00
2013,09,10,13,01,23.00
2013,09,10,13,02,23.00
2013,09,10,13,03,23.00
2013,09,10,13,04,23.00
2013,09,10,13,05,23.00
2013,09,10,13,06,23.00
2013,09,10,13,07,23.10
2013,09,10,13,08,23.10
2013,09,10,13,09,23.20
2013,09,10,13,10,23.20
2013,09,10,13,11,23.30
2013,09,10,13,12,23.30
2013,09,10,13,13,23.40
2013,09,10,13,14,23.40
2013,09,10,13,15,23.40
2013,09,10,13,16,23.40
2013,09,10,13,17,23.40
2013,09,10,13,18,23.40
2013,09,10,13,19,23.40
2013,09,10,13,20,23.40
2013,09,10,13,21,23.40
2013,09,10,13,22,23.50
2013,09,10,13,23,23.50
2013,09,10,13,24,23.60
2013,09,10,13,25,23.60
2013,09,10,13,26,23.70
2013,09,10,13,27,23.60
2013,09,10,13,28,23.60
2013,09,10,13,29,23.60
2013,09,10,13,30,23.60
2013,09,10,13,31,23.60
2013,09,10,13,32,23.70
2013,09,10,13,33,23.70
2013,09,10,13,34,23.80
2013,09,10,13,35,23.80
2013,09,10,13,36,23.80
2013,09,10,13,37,23.70
2013,09,10,13,38,23.70
2013,09,10,13,39,23.60
2013,09,10,13,40,23.60
2013,09,10,13,41,23.60
2013,09,10,13,42,23.50
2013,09,10,13,43,23.50
2013,09,10,13,44,23.50
2013,09,10,13,45,23.60
2013,09,10,13,46,23.60
2013,09,10,13,47,23.60
2013,09,10,13,48,23.60
2013,09,10,13,49,23.60
2013,09,10,13,50,23.60
2013,09,10,13,51,23.70
2013,09,10,13,52,23.80
2013,09,10,13,53,23.80
2013,09,10,13,54,23.90
2013,09,10,13,55,23.90
2013,09,10,13,56,23.90
2013,09,10,13,57,23.90
2013,09,10,13,58,23.90
2013,09,10,13,59,23.80
2013,09,10,14,00,23.80
2013,09,10,14,01,23.90
2013,09,10,14,02,23.90
2013,09,10,14,03,24.00
2013,09,10,14,04,24.00
2013,09,10,14,05,24.00
2013,09,10,14,06,24.10
2013,09,10,14,07,24.20
2013,09,10,14,08,24.20
2013,09,10,14,09,24.20
2013,09,10,14,10,24.20
2013,09,10,14,11,24.20
2013,09,10,14,12,24.20
2013,09,10,14,13,24.20
2013,09,10,14,14,24.20
2013,09,10,14,15,24.20
2013,09,10,14,16,24.30
2013,09,10,14,17,24.30
2013,09,10,14,18,24.40
2013,09,10,14,19,24.40
2013,09,10,14,20,24.40
2013,09,10,14,21,24.40
2013,09,10,14,22,24.50
2013,09,10,14,23,24.50
2013,09,10,14,24,24.50
2013,09,10,14,25,24.60
2013,09,10,14,26,24.60
2013,09,10,14,27,24.60
2013,09,10,14,28,24.70
2013,09,10,14,29,24.70
2013,09,10,14,30,24.80
2013,09,10,14,31,24.80
2013,09,10,14,32,24.80
2013,09,10,14,33,24.80
2013,09,10,14,34,24.80
2013,09,10,14,35,24.70
2013,09,10,14,36,24.70
2013,09,10,14,37,24.60
2013,09,10,14,38,24.60
2013,09,10,14,39,24.50
2013,09,10,14,40,24.40
2013,09,10,14,41,24.40
2013,09,10,14,42,24.30
2013,09,10,14,43,24.30
2013,09,10,14,44,24.20
2013,09,10,14,45,24.10
2013,09,10,14,46,24.10
2013,09,10,14,47,24.10
2013,09,10,14,48,24.10
2013,09,10,14,49,24.10
2013,09,10,14,50,24.10
2013,09,10,14,51,24.10
2013,09,10,14,52,24.10
2013,09,10,14,53,24.10
2013,09,10,14,54,24.10
2013,09,10,14,55,24.10
2013,09,10,14,56,24.20
2013,09,10,14,57,24.20
2013,09,10,14,58,24.20
2013,09,10,14,59,24.30
2013,09,10,15,00,24.30
2013,09,10,15,01,24.30
2013,09,10,15,02,24.40
2013,09,10,15,03,24.40
2013,09,10,15,04,24.40
2013,09,10,15,05,24.40
2013,09,10,15,06,24.50
2013,09,10,15,07,24.60
2013,09,10,15,08,24.70
2013,09,10,15,09,24.70
2013,09,10,15,10,24.70
2013,09,10,15,11,24.70
2013,09,10,15,12,24.60
2013,09,10,15,13,24.50
2013,09,10,15,14,24.50
2013,09,10,15,15,24.40
2013,09,10,15,16,24.40
2013,09,10,15,17,24.40
2013,09,10,15,18,24.40
2013,09,10,15,19,24.40
2013,09,10,15,20,24.40
2013,09,10,15,21,24.40
2013,09,10,15,22,24.30
2013,09,10,15,23,24.30
2013,09,10,15,24,24.20
2013,09,10,15,25,24.20
2013,09,10,15,26,24.20
2013,09,10,15,27,24.30
2013,09,10,15,28,24.30
2013,09,10,15,29,24.40
2013,09,10,15,30,24.40
2013,09,10,15,31,24.50
2013,09,10,15,32,24.60
2013,09,10,15,33,24.60
2013,09,10,15,34,24.60
2013,09,10,15,35,24.60
2013,09,10,15,36,24.60
2013,09,10,15,37,24.70
2013,09,10,15,38,24.70
2013,09,10,15,39,24.70
2013,09,10,15,40,24.80
2013,09,10,15,41,24.80
2013,09,10,15,42,24.80
2013,09,10,15,43,24.80
2013,09,10,15,44,24.80
2013,09,10,15,45,24.80
2013,09,10,15,46,24.80
2013,09,10,15,47,24.80
2013,09,10,15,48,24.70
2013,09,10,15,49,24.70
2013,09,10,15,50,24.70
2013,09,10,15,51,24.70
2013,09,10,15,52,24.60
2013,09,10,15,53,24.60
2013,09,10,15,54,24.60
2013,09,10,15,55,24.50
2013,09,10,15,56,24.50
2013,09,10,15,57,24.40
2013,09,10,15,58,24.40
2013,09,10,15,59,24.30
2013,09,10,16,00,24.30
2013,09,10,16,01,24.30
2013,09,10,16,02,24.30
2013,09,10,16,03,24.30
2013,09,10,16,04,24.20
2013,09,10,16,05,24.20
2013,09,10,16,06,24.20
2013,09,10,16,07,24.20
2013,09,10,16,08,24.20
2013,09,10,16,09,24.20
2013,09,10,16,10,24.20
2013,09,10,16,11,24.20
2013,09,10,16,12,24.10
2013,09,10,16,13,24.10
2013,09,10,16,14,24.10
2013,09,10,16,15,24.10
2013,09,10,16,16,24.10
2013,09,10,16,17,24.10
2013,09,10,16,18,24.10
2013,09,10,16,19,24.10
2013,09,10,16,20,24.00
2013,09,10,16,21,24.00
2013,09,10,16,22,24.00
2013,09,10,16,23,24.00
2013,09,10,16,24,24.00
2013,09,10,16,25,23.90
2013,09,10,16,26,23.90
2013,09,10,16,27,23.90
2013,09,10,16,28,23.90
2013,09,10,16,29,23.90
2013,09,10,16,30,23.80
2013,09,10,16,31,23.80
2013,09,10,16,32,23.80
2013,09,10,16,33,23.80
2013,09,10,16,34,23.80
2013,09,10,16,35,23.80
2013,09,10,16,36,23.70
2013,09,10,16,37,23.70
2013,09,10,16,38,23.70
2013,09,10,16,39,23.70
2013,09,10,16,40,23.70
2013,09,10,16,41,23.70
2013,09,10,16,42,23.70
2013,09,10,16,43,23.70
2013,09,10,16,44,23.70
2013,09,10,16,45,23.70
2013,09,10,16,46,23.70
2013,09,10,16,47,23.70
2013,09,10,16,48,23.70
2013,09,10,16,49,23.70
2013,09,10,16,50,23.70
2013,09,10,16,51,23.70
2013,09,10,16,52,23.80
2013,09,10,16,53,23.80
2013,09,10,16,54,23.80
2013,09,10,16,55,23.80
2013,09,10,16,56,23.70
2013,09,10,16,57,23.70
2013,09,10,16,58,23.70
2013,09,10,16,59,23.70
2013,09,10,17,00,23.70
2013,09,10,17,01,23.70
2013,09,10,17,02,23.70
2013,09,10,17,03,23.80
2013,09,10,17,04,23.80
2013,09,10,17,05,23.80
2013,09,10,17,06,23.80
2013,09,10,17,07,23.80
2013,09,10,17,08,23.80
2013,09,10,17,09,23.80
2013,09,10,17,10,23.80
2013,09,10,17,11,23.80
2013,09,10,17,12,23.80
2013,09,10,17,13,23.80
2013,09,10,17,14,23.80
2013,09,10,17,15,23.70
2013,09,10,17,16,23.70
2013,09,10,17,17,23.70
2013,09,10,17,18,23.70
2013,09,10,17,19,23.70